Other Surface Observations
Issued by NWS Tucson, AZ

Home | Current Version | Previous Version | Text Only | Print | Product List | Glossary On
Versions: 1 2 3 4 5 6 7 8 9 10 11 12 13 14 15 16 17 18 19 20 21 22 23 24 25 26 27 28 29 30 31 32 33 34 35 36 37 38 39 40 41 42 43 44 45 46 47 48 49 50
000
SXUS55 KTWC 231915
OSOTWC

WEATHER ROUNDUP FOR SOUTHEAST ARIZONA
NATIONAL WEATHER SERVICE TUCSON AZ
1215 PM MST FRI JUN 23 2017

AZZ504>506-514-232015-
LOCATION       SKY/WX    TMP DP  RH WIND       PRES   REMARKS
TUCSON         SUNNY    102  48  16 W9        29.93F
DAVIS-MONTHAN  MOSUNNY  100  55  21 W7        29.91F
CHILDRENS PARK N/A      N/A N/A  23 NW5               PIMA CO DEQ
ALVERNON/22ND  N/A       96 N/A N/A W6                PIMA CO DEQ
CHERRY/GLENN   N/A      N/A N/A N/A N/A               PIMA CO DEQ
TANGERINE      N/A       97 N/A N/A W7                PIMA CO DEQ
CONTL RANCH    N/A       98  55  24 W6                PIMA CO DEQ
GRANT/1ST      N/A       97  54  24 NW10              PIMA CO DEQ
CRAYCROFT/22ND N/A       97  56  26 N/A               PIMA CO DEQ
GOLFLINKS/KOLB N/A      N/A N/A N/A N/A               PIMA CO DEQ
AJO/12TH       N/A       98  57  26 SW6               PIMA CO DEQ
FAIRGROUNDS    N/A       96 N/A N/A N/A               PIMA CO DEQ
SAGUARO        N/A      102  55  21 W4G10             *SABINO CYN
SAN CARLOS     N/A      105  50  16 SW8G13            *SAN CARLOS
GREEN VALLEY   N/A       97  57  27 NE4               PIMA CO DEQ
HORSE CAMP CYN N/A       94  52  24 W9G14             *ARAVAIPA CYN
RINCON MTNS    N/A       82  43  25 W3G12             *NR MANNING CAMP
$$

AZZ509>511-232015-
LOCATION       SKY/WX    TMP DP  RH WIND       PRES   REMARKS
SAFFORD        SUNNY    107  37   9 NW20      29.87F HX 101
STRAY HORSE    N/A       89  23   9 S4G13             *
TRAIL CABIN    N/A       95  27   9 W7G14             *N OF GRANVILLE
BLACK HILLS    NOT AVBL
DRY LAKE       N/A       90  24   9 N5G13             *NATANES MTNS
NOON CREEK     N/A       98  23   7 NE7G15            *PINALENO MTNS
COLUMBINE      N/A       74  25  16 N6G11             *PINALENO MTNS
GUTHRIE        N/A       90  44  20 SW5G15            *SW OF GUTHRIE
$$

AZZ502-503-513-232015-
LOCATION       SKY/WX    TMP DP  RH WIND       PRES   REMARKS
NOGALES        MOSUNNY  100  55  22 SW8       30.02F
SELLS          N/A      101  56  23 NE6G13            *
SASABE         N/A       99  55  23 W10G17            *ALTAR VLY
HOPKINS        N/A       90  47  23 W11G17            *SANTA RITA MTNS
CARR CYN       N/A       98  41  14 NE4G10            *W OF HEREFORD
$$

AZZ507-508-512-232015-
LOCATION       SKY/WX    TMP DP  RH WIND       PRES   REMARKS
SIERRA VISTA   SUNNY     98  42  14 W10G21    30.09S
DOUGLAS        MOSUNNY   98  47  17 NW12      30.01F
EMPIRE MTNS    NOT AVBL
MULESHOE RANCH N/A       96  52  23 NW12G20           *PRESERVE
HEADQUARTERS   NOT AVBL
$$

.............................NOTES.............................
THIS IS AN AUTOMATED COLLECTIVE WITH MINIMAL QUALITY CONTROL.
PIMA CO DEQ SITES HAVE NONSTANDARD WIND SENSOR HEIGHTS.
PIMA CO DEQ SITES DO NOT REPORT WIND GUSTS.
* INDICATES WIND SENSORS LOCATED AT 20 FEET INSTEAD OF 33 FEET.
..............................KEY..............................
SKY/WX - SKY CONDITION/WEATHER
TMP    - TEMPERATURE IN FAHRENHEIT
DP     - DEWPOINT IN FAHRENHEIT
RH     - RELATIVE HUMIDITY IN PERCENT
WIND   - DIRECTION AND SPEED IN MILES PER HOUR (MPH)
VRB    - VARIABLE WIND DIRECTION
PRES   - MEAN SEA LEVEL PRESSURE IN INCHES OF MERCURY
         F - FALLING PRESSURE   R - RISING PRESSURE
         S - STEADY PRESSURE
VSB    - VISIBILITY IN MILES
HX     - HEAT INDEX IN FAHRENHEIT
WCI    - WIND CHILL INDEX IN FAHRENHEIT
N/A    - NOT AVAILABLE
AFB    - AIR FORCE BASE
         DAVIS-MONTHAN IS DAVIS-MONTHAN AIR FORCE BASE
CYN    - CANYON
MTNS   - MOUNTAINS
NCA    - NATIONAL CONSERVATION AREA
NR     - NEAR
VLY    - VALLEY
CONTL  - CONTINENTAL
PIMA CO DEQ - PIMA COUNTY DEPT OF ENVIRONMENTAL QUALITY



USA.gov is the U.S. government's official web portal to all federal, state and local government web resources and services.